| time (UTC) | temp F | wind direction | speed MPH | gust MPH | rain 1hr in | rain 24hr in | rain mn in | humidity % | barometer mb |
| 20260906235034 | 0 | 105 | 0.0 | 1.0 | 0.00 | 0.00 | 0.00 | 1014.9 | |
| 20260906234527 | 0 | 115 | 0.0 | 1.0 | 0.00 | 0.00 | 0.00 | 1014.8 | |
| 20260906234027 | 0 | 115 | 0.0 | 1.0 | 0.00 | 0.00 | 0.00 | 1014.8 | |
| 20260906233524 | 0 | 103 | 0.0 | 1.0 | 0.00 | 0.00 | 0.00 | 1014.7 | |
| 20260906233023 | 0 | 101 | 0.0 | 1.0 | 0.00 | 0.00 | 0.00 | 1014.7 | |
| 20260906232522 | 0 | 106 | 0.0 | 1.0 | 0.00 | 0.00 | 0.00 | 1014.7 | |
| 20260906232020 | 0 | 105 | 0.0 | 2.0 | 0.00 | 0.00 | 0.00 | 1014.6 | |
| 20260906231519 | 0 | 106 | 0.0 | 2.0 | 0.00 | 0.00 | 0.00 | 1014.6 | |
| 20260906231017 | 0 | 101 | 0.0 | 2.0 | 0.00 | 0.00 | 0.00 | 1014.6 | |
| 20260906230516 | 0 | 100 | 0.0 | 2.0 | 0.00 | 0.00 | 0.00 | 1014.6 | |
| 20260906230013 | 0 | 102 | 0.0 | 2.0 | 0.00 | 0.00 | 0.00 | 1014.5 | |
| 20260906225513 | 0 | 90 | 0.0 | 2.0 | 0.00 | 0.00 | 0.00 | 1014.5 | |
| 20260906225013 | 0 | 80 | 0.0 | 2.0 | 0.00 | 0.00 | 0.00 | 1014.5 | |
| 20260906224513 | 0 | 88 | 0.0 | 2.0 | 0.00 | 0.00 | 0.00 | 1014.6 | |
| 20260906224009 | 0 | 105 | 0.0 | 1.0 | 0.00 | 0.00 | 0.00 | 1014.5 | |
| 20260906223509 | 0 | 103 | 0.0 | 1.0 | 0.00 | 0.00 | 0.00 | 1014.5 | |
| 20260906223006 | 0 | 103 | 0.0 | 1.0 | 0.00 | 0.00 | 0.00 | 1014.4 | |
| 20260906222503 | 0 | 123 | 0.0 | 1.0 | 0.00 | 0.00 | 0.00 | 1014.5 | |
| 20260906222003 | 0 | 138 | 0.0 | 3.0 | 0.00 | 0.00 | 0.00 | 1014.5 | |
| 20260906221502 | 0 | 84 | 0.0 | 3.0 | 0.00 | 0.00 | 0.00 | 1014.5 | |
| 20260906221100 | 0 | 105 | 0.0 | 2.0 | 0.00 | 0.00 | 0.00 | 1014.5 | |
| 20260906220558 | 0 | 111 | 0.0 | 2.0 | 0.00 | 0.00 | 0.00 | 1014.4 | |
| 20260906220056 | 0 | 355 | 0.0 | 2.0 | 0.00 | 0.00 | 0.00 | 1014.4 | |
| 20260906215556 | 0 | 12 | 0.0 | 3.0 | 0.00 | 0.00 | 0.00 | 1014.4 | |
| 20260906215053 | 0 | 128 | 0.0 | 3.0 | 0.00 | 0.00 | 0.00 | 1014.4 | |
| 20260906214552 | 0 | 68 | 0.0 | 3.0 | 0.00 | 0.00 | 0.00 | 1014.3 | |
| 20260906214053 | 0 | 61 | 0.0 | 3.0 | 0.00 | 0.00 | 0.00 | 1014.3 | |
| 20260906213550 | 0 | 100 | 0.0 | 4.0 | 0.00 | 0.00 | 0.00 | 1014.3 | |
| 20260906213049 | 0 | 355 | 1.0 | 4.0 | 0.00 | 0.00 | 0.00 | 1014.3 | |
| 20260906212546 | 0 | 92 | 0.0 | 2.0 | 0.00 | 0.00 | 0.00 | 1014.4 | |
| 20260906212046 | 0 | 53 | 0.0 | 2.0 | 0.00 | 0.00 | 0.00 | 1014.4 | |
| 20260906211544 | 0 | 88 | 0.0 | 3.0 | 0.00 | 0.00 | 0.00 | 1014.4 | |
| 20260906211043 | 0 | 349 | 1.0 | 3.0 | 0.00 | 0.00 | 0.00 | 1014.5 | |
| 20260906210541 | 0 | 9 | 1.0 | 3.0 | 0.00 | 0.00 | 0.00 | 1014.4 | |
| 20260906210039 | 0 | 68 | 1.0 | 5.0 | 0.00 | 0.00 | 0.00 | 1014.3 | |
| 20260906205539 | 0 | 348 | 1.0 | 5.0 | 0.00 | 0.00 | 0.00 | 1014.2 | |
| 20260906205036 | 0 | 117 | 1.0 | 4.0 | 0.00 | 0.00 | 0.00 | 1014.3 | |
| 20260906204535 | 0 | 42 | 1.0 | 3.0 | 0.00 | 0.00 | 0.00 | 1014.2 | |
| 20260906204033 | 0 | 112 | 1.0 | 3.0 | 0.00 | 0.00 | 0.00 | 1014.3 | |
| 20260906203532 | 0 | 87 | 0.0 | 2.0 | 0.00 | 0.00 | 0.00 | 1014.3 | |
| 20260906203033 | 0 | 5 | 0.0 | 2.0 | 0.00 | 0.00 | 0.00 | 1014.5 | |
| 20260906202528 | 0 | 34 | 0.0 | 3.0 | 0.00 | 0.00 | 0.00 | 1014.5 | |
| 20260906202030 | 0 | 11 | 1.0 | 4.0 | 0.00 | 0.00 | 0.00 | 1014.6 | |
| 20260906201527 | 0 | 81 | 1.0 | 4.0 | 0.00 | 0.00 | 0.00 | 1014.5 | |
| 20260906201025 | 0 | 55 | 0.0 | 2.0 | 0.00 | 0.00 | 0.00 | 1014.5 | |
| 20260906200524 | 0 | 126 | 1.0 | 2.0 | 0.00 | 0.00 | 0.00 | 1014.6 | |
| 20260906200021 | 0 | 5 | 1.0 | 3.0 | 0.00 | 0.00 | 0.00 | 1014.6 | |
| 20260906195520 | 0 | 119 | 0.0 | 3.0 | 0.00 | 0.02 | 0.00 | 1014.6 | |
| 20260906195019 | 0 | 327 | 1.0 | 2.0 | 0.00 | 0.02 | 0.00 | 1014.6 | |
| 20260906194517 | 0 | 113 | 0.0 | 2.0 | 0.00 | 0.02 | 0.00 | 1014.5 | |
| 20260906194015 | 0 | 355 | 0.0 | 3.0 | 0.00 | 0.02 | 0.00 | 1014.5 | |
| 20260906193514 | 0 | 126 | 1.0 | 3.0 | 0.00 | 0.02 | 0.00 | 1014.3 | |
| 20260906193013 | 0 | 82 | 1.0 | 3.0 | 0.00 | 0.02 | 0.00 | 1014.4 | |
| 20260906192512 | 0 | 26 | 0.0 | 4.0 | 0.00 | 0.02 | 0.00 | 1014.3 | |
| 20260906192010 | 0 | 94 | 1.0 | 9.0 | 0.00 | 0.02 | 0.00 | 1014.4 | |
| 20260906191509 | 0 | 342 | 0.0 | 6.0 | 0.00 | 0.02 | 0.00 | 1014.4 | |
| 20260906191008 | 0 | 5 | 1.0 | 4.0 | 0.00 | 0.02 | 0.00 | 1014.5 | |
| 20260906190506 | 0 | 52 | 0.0 | 3.0 | 0.00 | 0.02 | 0.00 | 1014.4 | |
| 20260906190004 | 0 | 117 | 1.0 | 3.0 | 0.00 | 0.02 | 0.00 | 1014.5 | |
| 20260906185503 | 0 | 110 | 1.0 | 3.0 | 0.00 | 0.05 | 0.00 | 1014.6 | |
| 20260906185002 | 0 | 254 | 1.0 | 4.0 | 0.00 | 0.05 | 0.00 | 1014.7 | |
| 20260906184601 | 0 | 255 | 1.0 | 4.0 | 0.00 | 0.05 | 0.00 | 1014.7 | |
| 20260906184057 | 0 | 111 | 0.0 | 3.0 | 0.00 | 0.05 | 0.00 | 1014.8 | |
| 20260906183556 | 0 | 140 | 0.0 | 5.0 | 0.00 | 0.05 | 0.00 | 1014.8 | |
| 20260906183108 | 0 | 90 | 0.0 | 5.0 | 0.00 | 0.05 | 0.00 | 1014.7 | |
| 20260906182555 | 0 | 113 | 0.0 | 5.0 | 0.00 | 0.05 | 0.00 | 1014.8 | |
| 20260906182052 | 0 | 329 | 2.0 | 5.0 | 0.00 | 0.05 | 0.00 | 1014.9 | |
| 20260906181551 | 0 | 31 | 0.0 | 3.0 | 0.00 | 0.05 | 0.00 | 1014.9 | |
| 20260906181053 | 0 | 87 | 1.0 | 5.0 | 0.00 | 0.05 | 0.00 | 1014.9 | |
| 20260906180548 | 0 | 103 | 2.0 | 5.0 | 0.00 | 0.05 | 0.00 | 1015.0 | |
| 20260906180107 | 0 | 54 | 1.0 | 3.0 | 0.00 | 0.05 | 0.00 | 1015.0 | |
| 20260906175545 | 0 | 21 | 1.0 | 3.0 | 0.00 | 0.06 | 0.00 | 1015.0 | |
| 20260906175043 | 0 | 333 | 1.0 | 4.0 | 0.00 | 0.06 | 0.00 | 1014.9 | |
| 20260906174542 | 0 | 74 | 0.0 | 4.0 | 0.00 | 0.06 | 0.00 | 1015.0 | |
| 20260906174040 | 0 | 110 | 0.0 | 5.0 | 0.00 | 0.06 | 0.00 | 1014.9 | |
| 20260906173543 | 0 | 101 | 2.0 | 5.0 | 0.00 | 0.06 | 0.00 | 1014.9 | |
| 20260906173039 | 0 | 141 | 1.0 | 3.0 | 0.00 | 0.06 | 0.00 | 1015.0 | |
| 20260906172537 | 0 | 104 | 1.0 | 3.0 | 0.00 | 0.06 | 0.00 | 1014.9 | |
| 20260906172036 | 0 | 98 | 1.0 | 3.0 | 0.00 | 0.06 | 0.00 | 1015.1 | |
| 20260906171533 | 0 | 112 | 0.0 | 3.0 | 0.00 | 0.06 | 0.00 | 1015.1 | |
| 20260906171032 | 0 | 355 | 1.0 | 2.0 | 0.00 | 0.06 | 0.00 | 1015.1 | |
| 20260906170531 | 0 | 329 | 0.0 | 4.0 | 0.00 | 0.06 | 0.00 | 1015.1 | |
| 20260906170103 | 0 | 333 | 1.0 | 4.0 | 0.00 | 0.06 | 0.00 | 1015.1 | |
| 20260906165527 | 0 | 88 | 1.0 | 3.0 | 0.00 | 0.61 | 0.00 | 1015.2 | |
| 20260906165030 | 0 | 133 | 1.0 | 3.0 | 0.00 | 0.61 | 0.00 | 1015.2 | |
| 20260906164524 | 0 | 5 | 1.0 | 6.0 | 0.00 | 0.61 | 0.00 | 1015.2 | |
| 20260906164024 | 0 | 68 | 0.0 | 2.0 | 0.00 | 0.61 | 0.00 | 1015.2 | |
| 20260906163523 | 0 | 65 | 0.0 | 4.0 | 0.00 | 0.61 | 0.00 | 1015.1 | |
| 20260906163020 | 0 | 360 | 1.0 | 4.0 | 0.00 | 0.61 | 0.00 | 1015.2 | |
| 20260906162522 | 0 | 360 | 1.0 | 4.0 | 0.00 | 0.61 | 0.00 | 1015.2 | |
| 20260906162021 | 0 | 17 | 1.0 | 3.0 | 0.00 | 0.61 | 0.00 | 1015.3 | |
| 20260906161516 | 0 | 12 | 1.0 | 3.0 | 0.00 | 0.61 | 0.00 | 1015.2 | |
| 20260906161014 | 0 | 82 | 1.0 | 3.0 | 0.00 | 0.61 | 0.00 | 1015.1 | |
| 20260906160513 | 0 | 90 | 0.0 | 3.0 | 0.00 | 0.61 | 0.00 | 1015.2 | |
| 20260906160010 | 0 | 355 | 0.0 | 3.0 | 0.00 | 0.61 | 0.00 | 1015.3 | |
| 20260906155516 | 0 | 22 | 0.0 | 3.0 | 0.00 | 0.61 | 0.00 | 1015.4 | |
| 20260906155008 | 0 | 206 | 0.0 | 3.0 | 0.00 | 0.61 | 0.00 | 1015.4 | |
| 20260906154517 | 0 | 11 | 1.0 | 4.0 | 0.00 | 0.61 | 0.00 | 1015.4 | |
| 20260906154006 | 0 | 53 | 1.0 | 4.0 | 0.00 | 0.61 | 0.00 | 1015.5 | |
| 20260906153505 | 0 | 360 | 1.0 | 4.0 | 0.00 | 0.61 | 0.00 | 1015.4 | |
| 20260906153009 | 0 | 113 | 1.0 | 3.0 | 0.00 | 0.61 | 0.00 | 1015.4 | |
| 20260906152503 | 0 | 14 | 1.0 | 5.0 | 0.00 | 0.61 | 0.00 | 1015.4 | |
| 20260906152100 | 0 | 336 | 0.0 | 5.0 | 0.00 | 0.61 | 0.00 | 1015.3 | |
| 20260906151611 | 0 | 326 | 1.0 | 4.0 | 0.00 | 0.61 | 0.00 | 1015.2 | |
| 20260906151056 | 0 | 45 | 0.0 | 3.0 | 0.00 | 0.61 | 0.00 | 1015.3 | |
| 20260906150556 | 0 | 130 | 0.0 | 2.0 | 0.00 | 0.61 | 0.00 | 1015.3 | |
| 20260906150058 | 0 | 111 | 0.0 | 2.0 | 0.00 | 0.61 | 0.00 | 1015.2 | |
| 20260906145553 | 0 | 111 | 0.0 | 2.0 | 0.00 | 0.61 | 0.00 | 1015.2 | |
| 20260906145051 | 0 | 109 | 0.0 | 2.0 | 0.00 | 0.61 | 0.00 | 1015.2 | |
| 20260906144550 | 0 | 94 | 0.0 | 2.0 | 0.00 | 0.61 | 0.00 | 1015.2 | |
| 20260906144047 | 0 | 94 | 0.0 | 2.0 | 0.00 | 0.61 | 0.00 | 1015.3 | |
| 20260906143547 | 0 | 117 | 0.0 | 2.0 | 0.00 | 0.61 | 0.00 | 1015.2 | |
| 20260906143100 | 0 | 104 | 0.0 | 2.0 | 0.00 | 0.61 | 0.00 | 1015.2 | |
| 20260906142544 | 0 | 79 | 0.0 | 0.0 | 0.00 | 0.61 | 0.00 | 1015.2 | |
| 20260906142043 | 0 | 92 | 0.0 | 2.0 | 0.00 | 0.61 | 0.00 | 1015.3 | |
| 20260906141542 | 0 | 92 | 0.0 | 2.0 | 0.00 | 0.61 | 0.00 | 1015.3 | |
| 20260906141039 | 0 | 92 | 0.0 | 1.0 | 0.00 | 0.61 | 0.00 | 1015.3 | |
| 20260906140537 | 0 | 123 | 0.0 | 2.0 | 0.00 | 0.61 | 0.00 | 1015.0 | |
| 20260906140044 | 0 | 142 | 0.0 | 2.0 | 0.00 | 0.61 | 0.00 | 1015.0 | |
| 20260906135536 | 0 | 336 | 0.0 | 0.0 | 0.00 | 0.61 | 0.00 | 1015.0 | |
| 20260906135038 | 0 | 336 | 0.0 | 1.0 | 0.00 | 0.61 | 0.00 | 1015.0 | |
| 20260906134536 | 0 | 336 | 0.0 | 1.0 | 0.00 | 0.61 | 0.00 | 1015.0 | |
| 20260906134032 | 0 | 336 | 0.0 | 3.0 | 0.00 | 0.61 | 0.00 | 1015.0 | |
| 20260906133529 | 0 | 336 | 0.0 | 2.0 | 0.00 | 0.61 | 0.00 | 1014.9 | |
| 20260906133028 | 0 | 106 | 0.0 | 2.0 | 0.00 | 0.61 | 0.00 | 1014.8 | |
| 20260906132527 | 0 | 100 | 0.0 | 2.0 | 0.00 | 0.61 | 0.00 | 1014.6 | |
| 20260906132026 | 0 | 51 | 0.0 | 3.0 | 0.00 | 0.61 | 0.00 | 1014.7 | |
| 20260906131523 | 0 | 320 | 0.0 | 3.0 | 0.00 | 0.61 | 0.00 | 1014.4 | |
| 20260906131021 | 0 | 101 | 0.0 | 0.0 | 0.00 | 0.61 | 0.00 | 1014.4 | |
| 20260906130520 | 0 | 338 | 0.0 | 0.0 | 0.00 | 0.61 | 0.00 | 1014.5 | |
| 20260906130021 | 0 | 344 | 0.0 | 0.0 | 0.00 | 0.61 | 0.00 | 1014.6 | |
| 20260906125517 | 0 | 342 | 0.0 | 2.0 | 0.00 | 0.61 | 0.00 | 1014.7 | |
| 20260906125016 | 0 | 342 | 0.0 | 2.0 | 0.00 | 0.61 | 0.00 | 1014.8 | |
| 20260906124518 | 0 | 103 | 0.0 | 0.0 | 0.00 | 0.61 | 0.00 | 1014.9 | |
| 20260906124013 | 0 | 103 | 0.0 | 1.0 | 0.00 | 0.61 | 0.00 | 1014.8 | |
| 20260906123511 | 0 | 103 | 0.0 | 1.0 | 0.00 | 0.61 | 0.00 | 1014.8 | |
| 20260906123010 | 0 | 107 | 0.0 | 1.0 | 0.00 | 0.61 | 0.00 | 1014.7 | |
| 20260906122513 | 0 | 112 | 0.0 | 1.0 | 0.00 | 0.61 | 0.00 | 1014.7 | |
| 20260906122007 | 0 | 110 | 0.0 | 1.0 | 0.00 | 0.61 | 0.00 | 1014.5 | |
| 20260906121506 | 0 | 117 | 0.0 | 1.0 | 0.00 | 0.61 | 0.00 | 1014.5 | |
| 20260906121004 | 0 | 107 | 0.0 | 0.0 | 0.00 | 0.61 | 0.00 | 1014.3 | |
| 20260906120503 | 0 | 107 | 0.0 | 0.0 | 0.00 | 0.61 | 0.00 | 1014.3 | |
| 20260906120001 | 0 | 107 | 0.0 | 0.0 | 0.00 | 0.61 | 0.00 | 1014.2 | |
| 20260906115600 | 0 | 107 | 0.0 | 1.0 | 0.00 | 0.61 | 0.00 | 1014.3 | |
| 20260906115059 | 0 | 107 | 0.0 | 1.0 | 0.00 | 0.61 | 0.00 | 1014.2 | |
| 20260906114604 | 0 | 107 | 0.0 | 1.0 | 0.00 | 0.61 | 0.00 | 1014.1 | |
| 20260906114056 | 0 | 109 | 0.0 | 1.0 | 0.00 | 0.61 | 0.00 | 1014.0 | |
| 20260906113554 | 0 | 121 | 0.0 | 0.0 | 0.00 | 0.61 | 0.00 | 1014.1 | |
| 20260906113053 | 0 | 121 | 0.0 | 0.0 | 0.00 | 0.61 | 0.00 | 1013.9 | |
| 20260906112550 | 0 | 121 | 0.0 | 1.0 | 0.00 | 0.61 | 0.00 | 1013.9 | |
| 20260906112050 | 0 | 121 | 0.0 | 1.0 | 0.00 | 0.61 | 0.00 | 1013.8 | |
| 20260906111549 | 0 | 123 | 0.0 | 1.0 | 0.00 | 0.61 | 0.00 | 1013.6 | |
| 20260906111046 | 0 | 123 | 0.0 | 1.0 | 0.00 | 0.61 | 0.00 | 1013.6 | |
| 20260906110545 | 0 | 123 | 0.0 | 1.0 | 0.00 | 0.61 | 0.00 | 1013.6 | |
| 20260906110043 | 0 | 109 | 0.0 | 0.0 | 0.00 | 0.61 | 0.00 | 1013.6 | |
| 20260906105542 | 0 | 109 | 0.0 | 0.0 | 0.00 | 0.61 | 0.00 | 1013.5 | |
| 20260906105040 | 0 | 109 | 0.0 | 1.0 | 0.00 | 0.61 | 0.00 | 1013.6 | |
| 20260906104539 | 0 | 111 | 0.0 | 1.0 | 0.00 | 0.61 | 0.00 | 1013.5 | |
| 20260906104037 | 0 | 103 | 0.0 | 1.0 | 0.00 | 0.61 | 0.00 | 1013.5 | |
| 20260906103537 | 0 | 101 | 0.0 | 1.0 | 0.00 | 0.61 | 0.00 | 1013.5 | |
| 20260906103035 | 0 | 103 | 0.0 | 1.0 | 0.00 | 0.61 | 0.00 | 1013.4 | |
| 20260906102534 | 0 | 110 | 0.0 | 0.0 | 0.00 | 0.61 | 0.00 | 1013.3 | |
| 20260906102032 | 0 | 110 | 0.0 | 0.0 | 0.00 | 0.61 | 0.00 | 1013.2 | |
| 20260906101531 | 0 | 110 | 0.0 | 0.0 | 0.00 | 0.61 | 0.00 | 1013.2 | |
| 20260906101028 | 0 | 110 | 0.0 | 1.0 | 0.00 | 0.61 | 0.00 | 1013.1 | |
| 20260906100528 | 0 | 110 | 0.0 | 1.0 | 0.00 | 0.61 | 0.00 | 1013.0 | |
| 20260906100027 | 0 | 101 | 0.0 | 1.0 | 0.00 | 0.61 | 0.00 | 1013.0 | |
| 20260906095524 | 0 | 47 | 0.0 | 1.0 | 0.00 | 0.61 | 0.00 | 1013.0 | |
| 20260906095026 | 0 | 109 | 0.0 | 0.0 | 0.00 | 0.61 | 0.00 | 1012.9 | |
| 20260906094522 | 0 | 109 | 0.0 | 0.0 | 0.00 | 0.61 | 0.00 | 1012.8 | |
| 20260906094020 | 0 | 109 | 0.0 | 0.0 | 0.00 | 0.61 | 0.00 | 1012.8 | |
| 20260906093521 | 0 | 109 | 0.0 | 0.0 | 0.00 | 0.61 | 0.00 | 1012.8 | |
| 20260906093022 | 0 | 109 | 0.0 | 1.0 | 0.00 | 0.61 | 0.00 | 1012.7 | |
| 20260906092516 | 0 | 109 | 0.0 | 1.0 | 0.00 | 0.61 | 0.00 | 1012.8 | |
| 20260906092014 | 0 | 118 | 0.0 | 1.0 | 0.00 | 0.61 | 0.00 | 1012.6 | |
| 20260906091516 | 0 | 98 | 0.0 | 1.0 | 0.00 | 0.61 | 0.00 | 1012.7 | |
| 20260906091012 | 0 | 128 | 0.0 | 0.0 | 0.00 | 0.61 | 0.00 | 1012.5 | |
| 20260906090510 | 0 | 128 | 0.0 | 0.0 | 0.00 | 0.61 | 0.00 | 1012.5 | |
| 20260906090009 | 0 | 128 | 0.0 | 0.0 | 0.00 | 0.61 | 0.00 | 1012.6 | |
| 20260906085508 | 0 | 128 | 0.0 | 0.0 | 0.00 | 0.61 | 0.00 | 1012.5 | |
| 20260906085006 | 0 | 128 | 0.0 | 1.0 | 0.00 | 0.61 | 0.00 | 1012.5 | |
| 20260906084504 | 0 | 128 | 0.0 | 1.0 | 0.00 | 0.61 | 0.00 | 1012.3 | |
| 20260906084005 | 0 | 119 | 0.0 | 1.0 | 0.00 | 0.61 | 0.00 | 1012.3 | |
| 20260906083501 | 0 | 80 | 0.0 | 0.0 | 0.00 | 0.61 | 0.00 | 1012.3 | |
| 20260906083103 | 0 | 80 | 0.0 | 0.0 | 0.00 | 0.61 | 0.00 | 1012.3 | |
| 20260906082558 | 0 | 80 | 0.0 | 0.0 | 0.00 | 0.61 | 0.00 | 1012.4 | |
| 20260906082057 | 0 | 80 | 0.0 | 0.0 | 0.00 | 0.61 | 0.00 | 1012.4 | |
| 20260906081558 | 0 | 80 | 0.0 | 0.0 | 0.00 | 0.61 | 0.00 | 1012.4 | |
| 20260906081055 | 0 | 80 | 0.0 | 1.0 | 0.00 | 0.61 | 0.00 | 1012.4 | |
| 20260906080554 | 0 | 80 | 0.0 | 1.0 | 0.00 | 0.61 | 0.00 | 1012.3 | |
| 20260906080052 | 0 | 103 | 0.0 | 1.0 | 0.00 | 0.61 | 0.00 | 1012.2 | |
| 20260906075549 | 0 | 121 | 0.0 | 1.0 | 0.00 | 0.61 | 0.00 | 1012.3 | |
| 20260906075048 | 0 | 102 | 0.0 | 0.0 | 0.00 | 0.61 | 0.00 | 1012.1 | |
| 20260906074551 | 0 | 102 | 0.0 | 0.0 | 0.00 | 0.61 | 0.00 | 1012.2 | |
| 20260906074045 | 0 | 102 | 0.0 | 0.0 | 0.00 | 0.61 | 0.00 | 1012.2 | |
| 20260906073544 | 0 | 102 | 0.0 | 0.0 | 0.00 | 0.61 | 0.00 | 1012.2 | |
| 20260906073043 | 0 | 102 | 0.0 | 1.0 | 0.00 | 0.61 | 0.00 | 1012.2 | |
| 20260906072541 | 0 | 107 | 0.0 | 1.0 | 0.00 | 0.61 | 0.00 | 1012.1 | |
| 20260906072040 | 0 | 140 | 0.0 | 1.0 | 0.00 | 0.61 | 0.00 | 1012.0 | |
| 20260906071538 | 0 | 119 | 0.0 | 1.0 | 0.00 | 0.61 | 0.00 | 1012.0 | |
| 20260906071036 | 0 | 126 | 0.0 | 0.0 | 0.00 | 0.61 | 0.00 | 1011.8 | |
| 20260906070536 | 0 | 126 | 0.0 | 0.0 | 0.00 | 0.61 | 0.00 | 1012.0 | |
| 20260906070034 | 0 | 126 | 0.0 | 0.0 | 0.00 | 0.61 | 0.00 | 1012.0 | |
| 20260906065532 | 0 | 126 | 0.0 | 0.0 | 0.00 | 0.61 | 0.00 | 1012.0 | |
| 20260906065031 | 0 | 126 | 0.0 | 2.0 | 0.00 | 0.61 | 0.00 | 1011.9 | |
| 20260906064529 | 0 | 121 | 0.0 | 2.0 | 0.00 | 0.61 | 0.00 | 1012.1 | |
| 20260906064028 | 0 | 121 | 0.0 | 1.0 | 0.00 | 0.61 | 0.00 | 1012.1 | |
| 20260906063528 | 0 | 111 | 0.0 | 0.0 | 0.00 | 0.61 | 0.00 | 1012.2 | |
| 20260906063027 | 0 | 111 | 0.0 | 0.0 | 0.00 | 0.61 | 0.00 | 1012.3 | |
| 20260906062522 | 0 | 111 | 0.0 | 0.0 | 0.00 | 0.61 | 0.00 | 1012.3 | |
| 20260906062022 | 0 | 111 | 0.0 | 0.0 | 0.00 | 0.61 | 0.00 | 1012.2 | |
| 20260906061519 | 0 | 111 | 0.0 | 1.0 | 0.00 | 0.61 | 0.00 | 1012.3 | |
| 20260906061019 | 0 | 111 | 0.0 | 1.0 | 0.00 | 0.61 | 0.00 | 1012.3 | |
| 20260906060517 | 0 | 109 | 0.0 | 1.0 | 0.00 | 0.61 | 0.00 | 1012.3 | |
| 20260906060015 | 0 | 104 | 0.0 | 1.0 | 0.00 | 0.61 | 0.00 | 1012.4 | |
| 20260906055514 | 0 | 149 | 0.0 | 0.0 | 0.00 | 0.61 | 0.00 | 1012.3 | |
| 20260906055013 | 0 | 149 | 0.0 | 0.0 | 0.00 | 0.61 | 0.00 | 1012.4 | |
| 20260906054511 | 0 | 149 | 0.0 | 0.0 | 0.00 | 0.61 | 0.00 | 1012.4 | |
| 20260906054009 | 0 | 149 | 0.0 | 1.0 | 0.00 | 0.61 | 0.00 | 1012.5 | |
| 20260906053512 | 0 | 149 | 0.0 | 1.0 | 0.00 | 0.61 | 0.00 | 1012.3 | |
| 20260906053006 | 0 | 69 | 0.0 | 1.0 | 0.00 | 0.61 | 0.00 | 1012.2 | |
| 20260906052505 | 0 | 103 | 0.0 | 1.0 | 0.00 | 0.61 | 0.00 | 1012.3 | |
| 20260906052007 | 0 | 98 | 0.0 | 0.0 | 0.00 | 0.61 | 0.00 | 1012.5 | |
| 20260906051504 | 0 | 98 | 0.0 | 0.0 | 0.00 | 0.61 | 0.00 | 1012.7 | |
| 20260906051001 | 0 | 98 | 0.0 | 1.0 | 0.00 | 0.61 | 0.00 | 1012.7 | |
| 20260906050600 | 0 | 98 | 0.0 | 1.0 | 0.00 | 0.61 | 0.00 | 1012.6 | |
| 20260906050058 | 0 | 98 | 0.0 | 1.0 | 0.00 | 0.61 | 0.00 | 1012.7 | |
| 20260906045556 | 0 | 115 | 0.0 | 1.0 | 0.00 | 0.61 | 0.00 | 1012.6 | |
| 20260906045054 | 0 | 118 | 0.0 | 0.0 | 0.00 | 0.61 | 0.00 | 1012.6 | |
| 20260906044554 | 0 | 118 | 0.0 | 0.0 | 0.00 | 0.61 | 0.00 | 1012.4 | |
| 20260906044053 | 0 | 118 | 0.0 | 0.0 | 0.00 | 0.61 | 0.00 | 1012.4 | |
| 20260906043551 | 0 | 118 | 0.0 | 1.0 | 0.00 | 0.61 | 0.00 | 1012.4 | |
| 20260906043055 | 0 | 118 | 0.0 | 1.0 | 0.00 | 0.61 | 0.00 | 1012.5 | |
| 20260906042547 | 0 | 107 | 0.0 | 1.0 | 0.00 | 0.61 | 0.00 | 1012.7 | |
| 20260906042046 | 0 | 336 | 0.0 | 1.0 | 0.00 | 0.61 | 0.00 | 1012.7 | |
| 20260906041545 | 0 | 121 | 0.0 | 0.0 | 0.00 | 0.61 | 0.00 | 1012.8 | |
| 20260906041044 | 0 | 121 | 0.0 | 0.0 | 0.00 | 0.61 | 0.00 | 1012.8 | |
| 20260906040545 | 0 | 121 | 0.0 | 1.0 | 0.00 | 0.61 | 0.00 | 1012.7 | |
| 20260906040041 | 0 | 121 | 0.0 | 1.0 | 0.00 | 0.61 | 0.00 | 1012.6 | |
| 20260906035541 | 0 | 80 | 0.0 | 1.0 | 0.00 | 0.61 | 0.61 | 1012.7 | |
| 20260906035040 | 0 | 46 | 0.0 | 1.0 | 0.00 | 0.61 | 0.61 | 1012.8 | |
| 20260906034540 | 0 | 87 | 0.0 | 0.0 | 0.00 | 0.61 | 0.61 | 1012.8 | |
| 20260906034040 | 0 | 87 | 0.0 | 0.0 | 0.00 | 0.61 | 0.61 | 1012.7 | |
| 20260906033541 | 0 | 87 | 0.0 | 1.0 | 0.00 | 0.61 | 0.61 | 1012.6 | |
| 20260906033047 | 0 | 87 | 0.0 | 1.0 | 0.00 | 0.61 | 0.61 | 1012.5 | |
| 20260906032539 | 0 | 105 | 0.0 | 1.0 | 0.00 | 0.61 | 0.61 | 1012.5 | |
| 20260906032040 | 0 | 107 | 0.0 | 1.0 | 0.00 | 0.61 | 0.61 | 1012.8 | |
| 20260906031540 | 0 | 101 | 0.0 | 0.0 | 0.00 | 0.61 | 0.61 | 1012.8 | |
| 20260906031039 | 0 | 101 | 0.0 | 0.0 | 0.00 | 0.61 | 0.61 | 1012.6 | |
| 20260906030539 | 0 | 101 | 0.0 | 1.0 | 0.00 | 0.61 | 0.61 | 1012.6 | |
| 20260906030043 | 0 | 101 | 0.0 | 1.0 | 0.00 | 0.61 | 0.61 | 1012.6 | |
| 20260906025537 | 0 | 98 | 0.0 | 1.0 | 0.00 | 0.61 | 0.61 | 1012.7 | |
| 20260906025038 | 0 | 94 | 0.0 | 1.0 | 0.00 | 0.61 | 0.61 | 1012.8 | |
| 20260906024544 | 0 | 84 | 0.0 | 0.0 | 0.00 | 0.61 | 0.61 | 1012.8 | |
| 20260906024037 | 0 | 84 | 0.0 | 0.0 | 0.00 | 0.61 | 0.61 | 1012.7 | |
| 20260906023542 | 0 | 84 | 0.0 | 1.0 | 0.00 | 0.61 | 0.61 | 1012.6 | |
| 20260906023048 | 0 | 108 | 0.0 | 1.0 | 0.00 | 0.61 | 0.61 | 1012.7 | |
| 20260906022536 | 0 | 113 | 0.0 | 1.0 | 0.00 | 0.61 | 0.61 | 1012.7 | |
| 20260906022038 | 0 | 86 | 0.0 | 1.0 | 0.00 | 0.61 | 0.61 | 1012.5 | |
| 20260906021537 | 0 | 23 | 0.0 | 0.0 | 0.00 | 0.61 | 0.61 | 1012.6 | |
| 20260906021036 | 0 | 23 | 0.0 | 1.0 | 0.00 | 0.61 | 0.61 | 1012.7 | |
| 20260906020536 | 0 | 23 | 0.0 | 1.0 | 0.00 | 0.61 | 0.61 | 1012.5 | |
| 20260906020046 | 0 | 76 | 0.0 | 1.0 | 0.00 | 0.61 | 0.61 | 1012.5 | |
| 20260906015535 | 0 | 100 | 0.0 | 1.0 | 0.00 | 0.61 | 0.61 | 1012.6 | |
| 20260906015035 | 0 | 104 | 0.0 | 0.0 | 0.00 | 0.61 | 0.61 | 1012.7 | |
| 20260906014536 | 0 | 104 | 0.0 | 0.0 | 0.00 | 0.61 | 0.61 | 1012.7 | |
| 20260906014040 | 0 | 104 | 0.0 | 1.0 | 0.00 | 0.61 | 0.61 | 1012.6 | |
| 20260906013537 | 0 | 107 | 0.0 | 1.0 | 0.00 | 0.61 | 0.61 | 1012.4 | |
| 20260906013047 | 0 | 94 | 0.0 | 1.0 | 0.00 | 0.61 | 0.61 | 1012.4 | |
| 20260906012538 | 0 | 49 | 0.0 | 1.0 | 0.00 | 0.61 | 0.61 | 1012.3 | |
| 20260906012034 | 0 | 105 | 0.0 | 0.0 | 0.00 | 0.61 | 0.61 | 1012.3 | |
| 20260906011542 | 0 | 105 | 0.0 | 0.0 | 0.00 | 0.61 | 0.61 | 1012.4 | |
| 20260906011036 | 0 | 105 | 0.0 | 2.0 | 0.00 | 0.61 | 0.61 | 1012.2 | |
| 20260906010534 | 0 | 117 | 0.0 | 2.0 | 0.00 | 0.61 | 0.61 | 1012.0 | |
| 20260906010039 | 0 | 111 | 1.0 | 2.0 | 0.00 | 0.61 | 0.61 | 1011.8 | |
| 20260906005634 | 0 | 129 | 1.0 | 2.0 | 0.00 | 0.61 | 0.61 | 1012.0 | |
| 20260906005034 | 0 | 122 | 0.0 | 0.0 | 0.00 | 0.61 | 0.61 | 1011.9 | |
| 20260906004534 | 0 | 122 | 0.0 | 2.0 | 0.00 | 0.61 | 0.61 | 1011.8 | |
| 20260906004036 | 0 | 122 | 0.0 | 2.0 | 0.00 | 0.61 | 0.61 | 1011.8 | |
| 20260906003532 | 0 | 111 | 0.0 | 1.0 | 0.00 | 0.61 | 0.61 | 1011.8 | |
| 20260906003035 | 0 | 95 | 0.0 | 1.0 | 0.00 | 0.61 | 0.61 | 1011.8 | |
| 20260906002531 | 0 | 120 | 0.0 | 0.0 | 0.00 | 0.61 | 0.61 | 1011.7 | |
| 20260906002035 | 0 | 120 | 0.0 | 1.0 | 0.00 | 0.61 | 0.61 | 1011.5 | |
| 20260906001535 | 0 | 120 | 0.0 | 2.0 | 0.00 | 0.61 | 0.61 | 1011.5 | |
| 20260906001031 | 0 | 100 | 0.0 | 2.0 | 0.00 | 0.61 | 0.61 | 1011.4 | |
| 20260906000535 | 0 | 115 | 0.0 | 2.0 | 0.00 | 0.61 | 0.61 | 1011.3 | |
| 20260906000047 | 0 | 90 | 0.0 | 0.0 | 0.00 | 0.61 | 0.61 | 1011.2 | |
| 20260905235532 | 0 | 90 | 0.0 | 1.0 | 0.00 | 0.68 | 0.61 | 1011.3 |